Location: Asheville, NC
(35.6000°N, 82.5500°W)
Time: 15:27:28
(UTC-04:00)

XW-2A - Pass Details

Date: 18 March 2018
Orbit: 435 x 454 km, 97.4° (Epoch: 25 June)

Event Time Altitude Azimuth Distance (km) Brightness Sun altitude
Rises 21:44:51 0° 209° (SSW) 2,396 ? -25.7°
Reaches altitude 10° 21:47:55 10° 243° (WSW) 1,537 ? -26.3°
Maximum altitude 21:49:15 12° 267° (W) 1,424 ? -26.5°
Drops below altitude 10° 21:50:35 10° 291° (WNW) 1,545 ? -26.8°
Sets 21:53:43 0° 324° (NW) 2,424 ? -27.4°
